Weather History for Salt Lake City, UT

Change the Weather History Date:

Monday, April 15, 2013

  Actual Average Record
Temperature  
Mean Temperature 42 °F 50 °F  
Max Temperature 49 °F 61 °F 85 °F (1985)
Min Temperature 34 °F 39 °F 25 °F (1945)
Degree Days  
Heating Degree Days 23 15  
Month to date heating degree days 236 246  
Since 1 July heating degree days 5094 5164  
Cooling Degree Days 0 0  
Month to date cooling degree days 0 0  
Year to date cooling degree days 0 0  
Moisture  
Dew Point 32 °F    
Average Humidity 73    
Maximum Humidity 96    
Minimum Humidity 50    
Precipitation  
Precipitation 0.12 in 0.07 in 0.65 in (2006)
Month to date precipitation 1.71 0.99  
Year to date precipitation 4.62 5.28  
Snow  
Snow 0.10 in 0.10 in 2.40 in (1998)
Month to date snowfall 0.1 2.6  
Since 1 July snowfall 69.9 54.5  
Snow Depth 0.00 in    
Sea Level Pressure  
Sea Level Pressure 29.68 in    
Wind  
Wind Speed 4 mph (North)    
Max Wind Speed 14 mph    
Max Gust Speed 16 mph    
Visibility 8 miles    
Events Rain , Snow    
T = Trace of Precipitation, MM = Missing Value Source: NWS Daily Summary

Daily Weather History Graph

Daily Weather History Graph

Search for Another Location

Airport:

Trip Planner

Search our weather history database for the weather conditions in past years. The results will help you decide how hot, cold, wet, or windy it might be!

Date:

Astronomy

Apr. 15, 2013 Rise Set
Actual Time 6:48 AM MDT 8:07 PM MDT
Civil Twilight 6:20 AM MDT 8:36 PM MDT
Nautical Twilight 5:46 AM MDT 9:10 PM MDT
Astronomical Twilight 5:10 AM MDT 9:46 PM MDT
Moon 10:16 AM MDT (4/15) 12:23 AM MDT (4/15)
Length of Visible Light 14h 16m
Length of Day
13h 19m
Waxing Crescent, 25% of the Moon is Illuminated
Apr 15
Waxing Crescent
Apr 18
First Quarter
Apr 25
Full
May 2
Last Quarter
May 9
New

Hourly Weather History & Observations

Time (MDT) Temp. Windchill Dew Point Humidity Pressure Visibility Wind Dir Wind Speed Gust Speed Precip Events Conditions
12:53 AM 39.9 °F 35.8 °F 27.0 °F 60% 29.62 in 10.0 mi SW 5.8 mph - N/A   Overcast
1:53 AM 39.9 °F 32.9 °F 30.0 °F 68% 29.62 in 10.0 mi North 11.5 mph - N/A   Overcast
2:13 AM 37.4 °F 29.8 °F 30.2 °F 75% 29.65 in 6.0 mi NNE 11.5 mph - 0.00 in Rain , Snow Light Rain
2:22 AM 35.6 °F 28.0 °F 30.2 °F 81% 29.65 in 2.5 mi North 10.4 mph - 0.00 in Rain , Snow Light Rain
2:53 AM 35.1 °F 29.3 °F 33.1 °F 92% 29.65 in 2.0 mi NNW 6.9 mph - 0.01 in Snow Light Snow
3:31 AM 33.8 °F - 32.0 °F 93% 29.66 in 1.5 mi Calm Calm - 0.03 in Snow Light Snow
3:53 AM 35.1 °F 32.2 °F 33.1 °F 92% 29.64 in 1.0 mi SE 3.5 mph - 0.04 in Snow Light Snow
4:13 AM 35.6 °F 31.7 °F 33.8 °F 93% 29.66 in 5.0 mi SE 4.6 mph - 0.00 in Snow Light Snow
4:53 AM 35.1 °F - 32.0 °F 89% 29.64 in 9.0 mi Calm Calm - 0.00 in Snow Light Snow
5:53 AM 36.0 °F 32.1 °F 33.1 °F 89% 29.64 in 5.0 mi North 4.6 mph - 0.00 in   Overcast
6:39 AM 35.6 °F - 33.8 °F 93% 29.67 in 5.0 mi Calm Calm - N/A   Overcast
6:53 AM 36.0 °F - 33.1 °F 89% 29.65 in 5.0 mi Calm Calm - N/A   Overcast
7:00 AM 35.6 °F - 33.8 °F 93% 29.68 in 6.0 mi Calm Calm - N/A   Overcast
7:53 AM 37.0 °F - 34.0 °F 89% 29.67 in 7.0 mi Calm Calm - 0.00 in   Overcast
8:15 AM 37.4 °F - 33.8 °F 87% 29.69 in 8.0 mi Calm Calm - N/A   Overcast
8:53 AM 37.9 °F 34.4 °F 34.0 °F 86% 29.68 in 7.0 mi SSE 4.6 mph - 0.00 in Rain Light Rain
9:01 AM 37.4 °F 32.8 °F 35.6 °F 93% 29.70 in 7.0 mi South 5.8 mph - 0.00 in   Overcast
9:14 AM 37.4 °F 33.8 °F 33.8 °F 87% 29.70 in 7.0 mi SE 4.6 mph - 0.00 in   Overcast
9:53 AM 37.0 °F - 34.0 °F 89% 29.70 in 5.0 mi Calm Calm - 0.01 in Rain , Snow Light Rain
10:14 AM 37.4 °F - 33.8 °F 87% 29.71 in 6.0 mi Calm Calm - 0.00 in Rain , Snow Light Rain
10:29 AM 37.4 °F - 33.8 °F 87% 29.72 in 1.2 mi Calm Calm - 0.01 in Rain , Snow Light Rain
10:44 AM 35.6 °F - 33.8 °F 93% 29.73 in 1.2 mi Calm Calm - 0.05 in Snow Light Snow
10:53 AM 36.0 °F - 34.0 °F 93% 29.72 in 5.0 mi Calm Calm - 0.06 in Snow Light Snow
11:05 AM 37.4 °F 32.8 °F 33.8 °F 87% 29.73 in 7.0 mi North 5.8 mph - 0.00 in Rain , Snow Light Rain
11:18 AM 37.4 °F 33.8 °F 33.8 °F 87% 29.74 in 9.0 mi NNE 4.6 mph - 0.00 in Rain Light Rain
11:53 AM 39.9 °F 33.9 °F 34.0 °F 79% 29.72 in 10.0 mi NW 9.2 mph - 0.00 in Rain Light Rain
12:12 PM 39.2 °F 32.5 °F 33.8 °F 81% 29.73 in 10.0 mi North 10.4 mph - 0.00 in Rain Light Rain
12:47 PM 42.8 °F 39.3 °F 33.8 °F 70% 29.73 in 10.0 mi NNE 5.8 mph - 0.00 in   Mostly Cloudy
12:53 PM 41.0 °F 35.2 °F 34.0 °F 76% 29.71 in 10.0 mi North 9.2 mph - 0.00 in Rain Light Rain
1:02 PM 44.6 °F 40.7 °F 35.6 °F 71% 29.73 in 10.0 mi NNE 6.9 mph - 0.00 in Rain Light Rain
1:23 PM 42.8 °F 38.0 °F 33.8 °F 70% 29.73 in 10.0 mi North 8.1 mph - 0.00 in Rain Light Rain
1:53 PM 43.0 °F 38.2 °F 33.1 °F 68% 29.70 in 10.0 mi North 8.1 mph - 0.00 in   Mostly Cloudy
2:13 PM 44.6 °F 39.7 °F 33.8 °F 66% 29.73 in 10.0 mi North 9.2 mph - 0.00 in Rain Light Rain
2:53 PM 45.0 °F 41.2 °F 32.0 °F 60% 29.72 in 10.0 mi North 6.9 mph - 0.00 in   Mostly Cloudy
3:53 PM 46.9 °F - 32.0 °F 56% 29.70 in 10.0 mi NW 4.6 mph - N/A   Scattered Clouds
4:53 PM 48.9 °F - 32.0 °F 52% 29.68 in 10.0 mi NNW 6.9 mph - N/A   Mostly Cloudy
5:53 PM 48.0 °F - 28.0 °F 46% 29.67 in 10.0 mi North 8.1 mph - N/A   Mostly Cloudy
6:53 PM 48.0 °F - 28.0 °F 46% 29.68 in 10.0 mi North 8.1 mph - N/A   Scattered Clouds
7:53 PM 44.1 °F 39.0 °F 27.0 °F 51% 29.64 in 10.0 mi North 9.2 mph - N/A   Mostly Cloudy
8:53 PM 45.0 °F 40.1 °F 26.1 °F 48% 29.62 in 10.0 mi NNW 9.2 mph - N/A   Mostly Cloudy
9:53 PM 44.1 °F 40.8 °F 26.1 °F 49% 29.64 in 10.0 mi North 5.8 mph - N/A   Mostly Cloudy
10:53 PM 42.1 °F 38.4 °F 28.0 °F 58% 29.66 in 10.0 mi North 5.8 mph - N/A   Overcast
11:53 PM 43.0 °F 40.3 °F 30.0 °F 60% 29.65 in 10.0 mi North 4.6 mph - N/A   Overcast